owner,sensor,date,latitude,longitude,vertical_datum,mass_concentration_of_oxygen_in_sea_water,qcFlag 
DISL,ioos:station:DISL:CATA:1,2019-03-01T03:30:00Z,30.3085,-88.1395,2.557,6.51,1111122 
DISL,ioos:station:DISL:CATA:1,2019-03-01T04:30:00Z,30.3085,-88.1395,2.501,9.01,1111122 
DISL,ioos:station:DISL:CATA:1,2019-03-01T05:30:00Z,30.3085,-88.1395,2.363,9.93,1111122 
DISL,ioos:station:DISL:CATA:1,2019-03-01T06:30:00Z,30.3085,-88.1395,2.337,9.78,1111122 
DISL,ioos:station:DISL:CATA:1,2019-03-01T07:30:00Z,30.3085,-88.1395,2.285,9.44,1111122 
DISL,ioos:station:DISL:CATA:1,2019-03-01T08:30:00Z,30.3085,-88.1395,2.232,9.68,1111122 
DISL,ioos:station:DISL:CATA:1,2019-03-01T09:30:00Z,30.3085,-88.1395,2.255,9.76,1111122 
DISL,ioos:station:DISL:CATA:1,2019-03-01T10:30:00Z,30.3085,-88.1395,2.212,9.77,1111122 
DISL,ioos:station:DISL:CATA:1,2019-03-01T11:30:00Z,30.3085,-88.1395,2.199,9.75,1111122 
DISL,ioos:station:DISL:CATA:1,2019-03-01T12:30:00Z,30.3085,-88.1395,2.204,9.65,1111122 
DISL,ioos:station:DISL:CATA:1,2019-03-01T13:30:00Z,30.3085,-88.1395,2.242,9.79,1111122 
DISL,ioos:station:DISL:CATA:1,2019-03-01T14:30:00Z,30.3085,-88.1395,2.314,10.09,1111122 
DISL,ioos:station:DISL:CATA:1,2019-03-01T15:30:00Z,30.3085,-88.1395,2.354,9.97,1111122 
DISL,ioos:station:DISL:CATA:1,2019-03-01T16:30:00Z,30.3085,-88.1395,2.452,10.25,1111122 
DISL,ioos:station:DISL:CATA:1,2019-03-01T17:30:00Z,30.3085,-88.1395,2.464,10.28,1111122 
DISL,ioos:station:DISL:CATA:1,2019-03-01T18:30:00Z,30.3085,-88.1395,2.496,10.23,1111122 
DISL,ioos:station:DISL:CATA:1,2019-03-01T19:30:00Z,30.3085,-88.1395,2.567,10.1,1111122 
DISL,ioos:station:DISL:CATA:1,2019-03-01T20:30:00Z,30.3085,-88.1395,2.591,10.14,1111122 
DISL,ioos:station:DISL:CATA:1,2019-03-01T21:30:00Z,30.3085,-88.1395,2.656,9.87,1111122 
DISL,ioos:station:DISL:CATA:1,2019-03-01T22:30:00Z,30.3085,-88.1395,2.69,10.05,1111122 
DISL,ioos:station:DISL:CATA:1,2019-03-01T23:30:00Z,30.3085,-88.1395,2.685,10.62,1111122 
DISL,ioos:station:DISL:CATA:1,2019-03-02T00:30:00Z,30.3085,-88.1395,2.67,8.72,1111122 
DISL,ioos:station:DISL:CATA:1,2019-03-02T01:30:00Z,30.3085,-88.1395,2.637,9.0,1111122 
DISL,ioos:station:DISL:CATA:1,2019-03-02T02:30:00Z,30.3085,-88.1395,2.613,9.91,1111122 
DISL,ioos:station:DISL:CATA:1,2019-03-02T03:30:00Z,30.3085,-88.1395,2.611,10.09,1111122 
DISL,ioos:station:DISL:CATA:1,2019-03-02T04:30:00Z,30.3085,-88.1395,2.542,9.63,1111122 
DISL,ioos:station:DISL:CATA:1,2019-03-02T05:30:00Z,30.3085,-88.1395,2.47,9.6,1111122 
DISL,ioos:station:DISL:CATA:1,2019-03-02T06:30:00Z,30.3085,-88.1395,2.406,9.44,1111122 
DISL,ioos:station:DISL:CATA:1,2019-03-02T07:30:00Z,30.3085,-88.1395,2.334,9.76,1111122 
DISL,ioos:station:DISL:CATA:1,2019-03-02T08:30:00Z,30.3085,-88.1395,2.249,10.1,1111122 
DISL,ioos:station:DISL:CATA:1,2019-03-02T09:30:00Z,30.3085,-88.1395,2.207,9.99,1111122 
DISL,ioos:station:DISL:CATA:1,2019-03-02T10:30:00Z,30.3085,-88.1395,2.193,9.63,1111122 
DISL,ioos:station:DISL:CATA:1,2019-03-02T11:30:00Z,30.3085,-88.1395,2.206,9.67,1111122 
DISL,ioos:station:DISL:CATA:1,2019-03-02T12:30:00Z,30.3085,-88.1395,2.199,9.64,1111122 
DISL,ioos:station:DISL:CATA:1,2019-03-02T13:30:00Z,30.3085,-88.1395,2.194,9.48,1111122 
DISL,ioos:station:DISL:CATA:1,2019-03-02T14:30:00Z,30.3085,-88.1395,2.218,9.62,1111122 
DISL,ioos:station:DISL:CATA:1,2019-03-02T15:30:00Z,30.3085,-88.1395,2.284,9.74,1111122 
DISL,ioos:station:DISL:CATA:1,2019-03-02T16:30:00Z,30.3085,-88.1395,2.355,9.79,1111122 
DISL,ioos:station:DISL:CATA:1,2019-03-02T17:30:00Z,30.3085,-88.1395,2.4,10.0,1111122 
DISL,ioos:station:DISL:CATA:1,2019-03-02T18:30:00Z,30.3085,-88.1395,2.434,10.19,1111122 
DISL,ioos:station:DISL:CATA:1,2019-03-02T19:30:00Z,30.3085,-88.1395,2.456,9.93,1111122 
DISL,ioos:station:DISL:CATA:1,2019-03-02T20:30:00Z,30.3085,-88.1395,2.484,9.75,1111122 
DISL,ioos:station:DISL:CATA:1,2019-03-02T21:30:00Z,30.3085,-88.1395,2.548,9.39,1111122 
DISL,ioos:station:DISL:CATA:1,2019-03-02T22:30:00Z,30.3085,-88.1395,2.58,9.58,1111122 
DISL,ioos:station:DISL:CATA:1,2019-03-02T23:30:00Z,30.3085,-88.1395,2.605,10.15,1111122 
DISL,ioos:station:DISL:CATA:1,2019-03-03T00:30:00Z,30.3085,-88.1395,2.621,10.43,1111122 
DISL,ioos:station:DISL:CATA:1,2019-03-03T01:30:00Z,30.3085,-88.1395,2.608,8.07,1111122 
DISL,ioos:station:DISL:CATA:1,2019-03-03T02:30:00Z,30.3085,-88.1395,2.611,6.68,1111122 
DISL,ioos:station:DISL:CATA:1,2019-03-03T03:30:00Z,30.3085,-88.1395,2.593,5.8,1111122 
DISL,ioos:station:DISL:CATA:1,2019-03-03T04:30:00Z,30.3085,-88.1395,2.551,9.87,1111122 
DISL,ioos:station:DISL:CATA:1,2019-03-03T05:30:00Z,30.3085,-88.1395,2.476,11.27,1111122 
DISL,ioos:station:DISL:CATA:1,2019-03-03T06:30:00Z,30.3085,-88.1395,2.392,11.34,1111122 
DISL,ioos:station:DISL:CATA:1,2019-03-03T07:30:00Z,30.3085,-88.1395,2.329,10.64,1111122 
DISL,ioos:station:DISL:CATA:1,2019-03-03T08:30:00Z,30.3085,-88.1395,2.268,10.1,1111122 
DISL,ioos:station:DISL:CATA:1,2019-03-03T09:30:00Z,30.3085,-88.1395,2.213,9.93,1111122 
DISL,ioos:station:DISL:CATA:1,2019-03-03T10:30:00Z,30.3085,-88.1395,2.188,9.74,1111122 
DISL,ioos:station:DISL:CATA:1,2019-03-03T11:30:00Z,30.3085,-88.1395,2.198,9.64,1111122 
DISL,ioos:station:DISL:CATA:1,2019-03-03T12:30:00Z,30.3085,-88.1395,2.209,9.48,1111122 
DISL,ioos:station:DISL:CATA:1,2019-03-03T13:30:00Z,30.3085,-88.1395,2.227,9.42,1111122 
DISL,ioos:station:DISL:CATA:1,2019-03-03T14:30:00Z,30.3085,-88.1395,2.277,9.35,1111122 
DISL,ioos:station:DISL:CATA:1,2019-03-03T15:30:00Z,30.3085,-88.1395,2.338,9.37,1111122 
DISL,ioos:station:DISL:CATA:1,2019-03-03T16:30:00Z,30.3085,-88.1395,2.404,9.28,1111122 
DISL,ioos:station:DISL:CATA:1,2019-03-03T17:30:00Z,30.3085,-88.1395,2.452,9.59,1111122 
DISL,ioos:station:DISL:CATA:1,2019-03-03T18:30:00Z,30.3085,-88.1395,2.504,9.66,1111122 
DISL,ioos:station:DISL:CATA:1,2019-03-03T19:30:00Z,30.3085,-88.1395,2.57,9.58,1111122 
DISL,ioos:station:DISL:CATA:1,2019-03-03T20:30:00Z,30.3085,-88.1395,2.645,9.65,1111122 
DISL,ioos:station:DISL:CATA:1,2019-03-03T21:30:00Z,30.3085,-88.1395,2.666,9.65,1111122 
DISL,ioos:station:DISL:CATA:1,2019-03-03T22:30:00Z,30.3085,-88.1395,2.778,9.55,1111122 
DISL,ioos:station:DISL:CATA:1,2019-03-03T23:30:00Z,30.3085,-88.1395,2.673,9.19,1111122 
DISL,ioos:station:DISL:CATA:1,2019-03-04T00:30:00Z,30.3085,-88.1395,2.66,9.52,1111122 
DISL,ioos:station:DISL:CATA:1,2019-03-04T01:30:00Z,30.3085,-88.1395,2.608,9.47,1111122 
DISL,ioos:station:DISL:CATA:1,2019-03-04T02:30:00Z,30.3085,-88.1395,2.556,9.54,1111122 
DISL,ioos:station:DISL:CATA:1,2019-03-04T03:30:00Z,30.3085,-88.1395,2.551,9.05,1111122 
DISL,ioos:station:DISL:CATA:1,2019-03-04T04:30:00Z,30.3085,-88.1395,2.564,9.05,1111122 
DISL,ioos:station:DISL:CATA:1,2019-03-04T05:30:00Z,30.3085,-88.1395,2.522,9.12,1111122 
DISL,ioos:station:DISL:CATA:1,2019-03-04T06:30:00Z,30.3085,-88.1395,2.446,9.15,1111122 
DISL,ioos:station:DISL:CATA:1,2019-03-04T07:30:00Z,30.3085,-88.1395,2.339,9.16,1111122 
DISL,ioos:station:DISL:CATA:1,2019-03-04T08:30:00Z,30.3085,-88.1395,2.281,9.23,1111122 
DISL,ioos:station:DISL:CATA:1,2019-03-04T09:30:00Z,30.3085,-88.1395,2.27,9.22,1111122 
DISL,ioos:station:DISL:CATA:1,2019-03-04T10:30:00Z,30.3085,-88.1395,2.223,9.22,1111122 
DISL,ioos:station:DISL:CATA:1,2019-03-04T11:30:00Z,30.3085,-88.1395,2.185,9.25,1111122 
DISL,ioos:station:DISL:CATA:1,2019-03-04T12:30:00Z,30.3085,-88.1395,2.167,9.24,1111122 
DISL,ioos:station:DISL:CATA:1,2019-03-04T13:30:00Z,30.3085,-88.1395,2.162,9.25,1111122 
DISL,ioos:station:DISL:CATA:1,2019-03-04T14:30:00Z,30.3085,-88.1395,2.187,9.3,1111122 
DISL,ioos:station:DISL:CATA:1,2019-03-04T15:30:00Z,30.3085,-88.1395,2.195,9.35,1111122 
DISL,ioos:station:DISL:CATA:1,2019-03-04T16:30:00Z,30.3085,-88.1395,2.217,9.44,1111122 
DISL,ioos:station:DISL:CATA:1,2019-03-04T17:30:00Z,30.3085,-88.1395,2.257,9.46,1111122 
DISL,ioos:station:DISL:CATA:1,2019-03-04T18:30:00Z,30.3085,-88.1395,2.284,9.47,1111122 
DISL,ioos:station:DISL:CATA:1,2019-03-04T19:30:00Z,30.3085,-88.1395,2.32,9.41,1111122 
DISL,ioos:station:DISL:CATA:1,2019-03-04T20:30:00Z,30.3085,-88.1395,2.307,9.57,1111122 
DISL,ioos:station:DISL:CATA:1,2019-03-04T21:30:00Z,30.3085,-88.1395,2.316,10.08,1111122 
DISL,ioos:station:DISL:CATA:1,2019-03-04T22:30:00Z,30.3085,-88.1395,2.314,10.14,1111122 
DISL,ioos:station:DISL:CATA:1,2019-03-04T23:30:00Z,30.3085,-88.1395,2.34,9.89,1111122 
DISL,ioos:station:DISL:CATA:1,2019-03-05T00:30:00Z,30.3085,-88.1395,2.431,9.78,1111122 
DISL,ioos:station:DISL:CATA:1,2019-03-05T01:30:00Z,30.3085,-88.1395,2.464,9.93,1111122 
DISL,ioos:station:DISL:CATA:1,2019-03-05T02:30:00Z,30.3085,-88.1395,2.507,10.19,1111122 
DISL,ioos:station:DISL:CATA:1,2019-03-05T03:30:00Z,30.3085,-88.1395,2.473,10.31,1111122 
DISL,ioos:station:DISL:CATA:1,2019-03-05T04:30:00Z,30.3085,-88.1395,2.487,10.01,1111122 
DISL,ioos:station:DISL:CATA:1,2019-03-05T05:30:00Z,30.3085,-88.1395,2.476,9.95,1111122 
DISL,ioos:station:DISL:CATA:1,2019-03-05T06:30:00Z,30.3085,-88.1395,2.397,9.57,1111122 
DISL,ioos:station:DISL:CATA:1,2019-03-05T07:30:00Z,30.3085,-88.1395,2.342,9.58,1111122 
DISL,ioos:station:DISL:CATA:1,2019-03-05T08:30:00Z,30.3085,-88.1395,2.255,9.86,1111122 
DISL,ioos:station:DISL:CATA:1,2019-03-05T09:30:00Z,30.3085,-88.1395,2.178,9.68,1111122 
DISL,ioos:station:DISL:CATA:1,2019-03-05T10:30:00Z,30.3085,-88.1395,2.134,9.71,1111122 
DISL,ioos:station:DISL:CATA:1,2019-03-05T11:30:00Z,30.3085,-88.1395,2.108,9.73,1111122 
DISL,ioos:station:DISL:CATA:1,2019-03-05T12:30:00Z,30.3085,-88.1395,2.084,9.72,1111122 
DISL,ioos:station:DISL:CATA:1,2019-03-05T13:30:00Z,30.3085,-88.1395,2.09,9.72,1111122 
DISL,ioos:station:DISL:CATA:1,2019-03-05T14:30:00Z,30.3085,-88.1395,2.096,9.77,1111122 
DISL,ioos:station:DISL:CATA:1,2019-03-05T15:30:00Z,30.3085,-88.1395,2.071,9.79,1111122 
DISL,ioos:station:DISL:CATA:1,2019-03-05T16:30:00Z,30.3085,-88.1395,2.145,9.83,1111122 
DISL,ioos:station:DISL:CATA:1,2019-03-05T17:30:00Z,30.3085,-88.1395,2.193,9.8,1111122 
DISL,ioos:station:DISL:CATA:1,2019-03-05T18:30:00Z,30.3085,-88.1395,2.23,9.72,1111122 
DISL,ioos:station:DISL:CATA:1,2019-03-05T19:30:00Z,30.3085,-88.1395,2.26,10.11,1111122 
DISL,ioos:station:DISL:CATA:1,2019-03-05T20:30:00Z,30.3085,-88.1395,2.252,10.12,1111122 
DISL,ioos:station:DISL:CATA:1,2019-03-05T22:30:00Z,30.3085,-88.1395,2.247,11.04,1111122 
DISL,ioos:station:DISL:CATA:1,2019-03-05T23:30:00Z,30.3085,-88.1395,2.287,10.44,1111122 
DISL,ioos:station:DISL:CATA:1,2019-03-06T00:30:00Z,30.3085,-88.1395,2.333,10.06,1111122 
DISL,ioos:station:DISL:CATA:1,2019-03-06T01:30:00Z,30.3085,-88.1395,2.377,9.99,1111122 
DISL,ioos:station:DISL:CATA:1,2019-03-06T02:30:00Z,30.3085,-88.1395,2.386,10.38,1111122 
DISL,ioos:station:DISL:CATA:1,2019-03-06T03:30:00Z,30.3085,-88.1395,2.377,10.88,1111122 
DISL,ioos:station:DISL:CATA:1,2019-03-06T04:30:00Z,30.3085,-88.1395,2.38,10.7,1111122 
DISL,ioos:station:DISL:CATA:1,2019-03-06T05:30:00Z,30.3085,-88.1395,2.371,10.54,1111122 
DISL,ioos:station:DISL:CATA:1,2019-03-06T06:30:00Z,30.3085,-88.1395,2.332,10.02,1111122 
DISL,ioos:station:DISL:CATA:1,2019-03-06T07:30:00Z,30.3085,-88.1395,2.267,9.97,1111122 
DISL,ioos:station:DISL:CATA:1,2019-03-06T08:30:00Z,30.3085,-88.1395,2.187,9.93,1111122 
DISL,ioos:station:DISL:CATA:1,2019-03-06T09:30:00Z,30.3085,-88.1395,2.111,9.93,1111122 
DISL,ioos:station:DISL:CATA:1,2019-03-06T10:30:00Z,30.3085,-88.1395,2.032,9.91,1111122 
DISL,ioos:station:DISL:CATA:1,2019-03-06T11:30:00Z,30.3085,-88.1395,1.985,9.97,1111122 
DISL,ioos:station:DISL:CATA:1,2019-03-06T12:30:00Z,30.3085,-88.1395,1.964,9.97,1111122 
DISL,ioos:station:DISL:CATA:1,2019-03-06T13:30:00Z,30.3085,-88.1395,1.985,10.09,1111122 
DISL,ioos:station:DISL:CATA:1,2019-03-06T14:30:00Z,30.3085,-88.1395,2.02,10.12,1111122 
DISL,ioos:station:DISL:CATA:1,2019-03-06T15:30:00Z,30.3085,-88.1395,2.055,10.17,1111122 
DISL,ioos:station:DISL:CATA:1,2019-03-06T16:30:00Z,30.3085,-88.1395,2.086,10.2,1111122 
DISL,ioos:station:DISL:CATA:1,2019-03-06T17:30:00Z,30.3085,-88.1395,2.132,10.14,1111122 
DISL,ioos:station:DISL:CATA:1,2019-03-06T18:30:00Z,30.3085,-88.1395,2.158,10.16,1111122 
DISL,ioos:station:DISL:CATA:1,2019-03-06T19:30:00Z,30.3085,-88.1395,2.183,10.17,1111122 
DISL,ioos:station:DISL:CATA:1,2019-03-06T20:30:00Z,30.3085,-88.1395,2.19,10.14,1111122 
DISL,ioos:station:DISL:CATA:1,2019-03-06T21:30:00Z,30.3085,-88.1395,2.201,10.35,1111122 
DISL,ioos:station:DISL:CATA:1,2019-03-06T22:30:00Z,30.3085,-88.1395,2.228,10.38,1111122 
DISL,ioos:station:DISL:CATA:1,2019-03-06T23:30:00Z,30.3085,-88.1395,2.267,10.16,1111122 
DISL,ioos:station:DISL:CATA:1,2019-03-07T00:30:00Z,30.3085,-88.1395,2.294,10.31,1111122 
DISL,ioos:station:DISL:CATA:1,2019-03-07T01:30:00Z,30.3085,-88.1395,2.303,10.36,1111122 
DISL,ioos:station:DISL:CATA:1,2019-03-07T02:30:00Z,30.3085,-88.1395,2.346,10.34,1111122 
DISL,ioos:station:DISL:CATA:1,2019-03-07T03:30:00Z,30.3085,-88.1395,2.395,10.26,1111122 
DISL,ioos:station:DISL:CATA:1,2019-03-07T04:30:00Z,30.3085,-88.1395,2.417,10.33,1111122 
DISL,ioos:station:DISL:CATA:1,2019-03-07T05:30:00Z,30.3085,-88.1395,2.421,10.56,1111122 
DISL,ioos:station:DISL:CATA:1,2019-03-07T06:30:00Z,30.3085,-88.1395,2.417,10.86,1111122 
DISL,ioos:station:DISL:CATA:1,2019-03-07T07:30:00Z,30.3085,-88.1395,2.377,10.53,1111122 
DISL,ioos:station:DISL:CATA:1,2019-03-07T08:30:00Z,30.3085,-88.1395,2.322,10.36,1111122 
DISL,ioos:station:DISL:CATA:1,2019-03-07T09:30:00Z,30.3085,-88.1395,2.261,10.42,1111122 
DISL,ioos:station:DISL:CATA:1,2019-03-07T10:30:00Z,30.3085,-88.1395,2.186,10.85,1111122 
DISL,ioos:station:DISL:CATA:1,2019-03-07T11:30:00Z,30.3085,-88.1395,2.137,10.35,1111122 
DISL,ioos:station:DISL:CATA:1,2019-03-07T12:30:00Z,30.3085,-88.1395,2.108,10.36,1111122 
DISL,ioos:station:DISL:CATA:1,2019-03-07T13:30:00Z,30.3085,-88.1395,2.115,10.34,1111122 
DISL,ioos:station:DISL:CATA:1,2019-03-07T14:30:00Z,30.3085,-88.1395,2.152,10.27,1111122 
DISL,ioos:station:DISL:CATA:1,2019-03-07T15:30:00Z,30.3085,-88.1395,2.171,10.14,1111122 
DISL,ioos:station:DISL:CATA:1,2019-03-07T16:30:00Z,30.3085,-88.1395,2.191,10.21,1111122 
DISL,ioos:station:DISL:CATA:1,2019-03-07T17:30:00Z,30.3085,-88.1395,2.201,10.2,1111122 
DISL,ioos:station:DISL:CATA:1,2019-03-07T18:30:00Z,30.3085,-88.1395,2.223,10.26,1111122 
DISL,ioos:station:DISL:CATA:1,2019-03-07T19:30:00Z,30.3085,-88.1395,2.248,10.23,1111122 
DISL,ioos:station:DISL:CATA:1,2019-03-07T20:30:00Z,30.3085,-88.1395,2.28,10.25,1111122 
DISL,ioos:station:DISL:CATA:1,2019-03-07T21:30:00Z,30.3085,-88.1395,2.286,10.31,1111122 
DISL,ioos:station:DISL:CATA:1,2019-03-07T22:30:00Z,30.3085,-88.1395,2.278,10.33,1111122 
DISL,ioos:station:DISL:CATA:1,2019-03-07T23:30:00Z,30.3085,-88.1395,2.302,10.29,1111122 
DISL,ioos:station:DISL:CATA:1,2019-03-08T00:30:00Z,30.3085,-88.1395,2.331,10.28,1111122 
DISL,ioos:station:DISL:CATA:1,2019-03-08T01:30:00Z,30.3085,-88.1395,2.384,10.26,1111122 
DISL,ioos:station:DISL:CATA:1,2019-03-08T02:30:00Z,30.3085,-88.1395,2.43,10.24,1111122 
DISL,ioos:station:DISL:CATA:1,2019-03-08T03:30:00Z,30.3085,-88.1395,2.455,10.04,1111122 
DISL,ioos:station:DISL:CATA:1,2019-03-08T04:30:00Z,30.3085,-88.1395,2.467,9.92,1111122 
DISL,ioos:station:DISL:CATA:1,2019-03-08T05:30:00Z,30.3085,-88.1395,2.469,10.1,1111122 
DISL,ioos:station:DISL:CATA:1,2019-03-08T06:30:00Z,30.3085,-88.1395,2.499,10.11,1111122 
DISL,ioos:station:DISL:CATA:1,2019-03-08T07:30:00Z,30.3085,-88.1395,2.509,10.1,1111122 
DISL,ioos:station:DISL:CATA:1,2019-03-08T08:30:00Z,30.3085,-88.1395,2.508,10.1,1111122 
DISL,ioos:station:DISL:CATA:1,2019-03-08T09:30:00Z,30.3085,-88.1395,2.456,10.1,1111122 
DISL,ioos:station:DISL:CATA:1,2019-03-08T10:30:00Z,30.3085,-88.1395,2.372,10.13,1111122 
DISL,ioos:station:DISL:CATA:1,2019-03-08T11:30:00Z,30.3085,-88.1395,2.314,10.15,1111122 
DISL,ioos:station:DISL:CATA:1,2019-03-08T12:30:00Z,30.3085,-88.1395,2.31,10.28,1111122 
DISL,ioos:station:DISL:CATA:1,2019-03-08T13:30:00Z,30.3085,-88.1395,2.345,10.25,1111122 
DISL,ioos:station:DISL:CATA:1,2019-03-08T17:00:00Z,30.3085,-88.1395,2.43,10.22,1111122 
DISL,ioos:station:DISL:CATA:1,2019-03-08T17:30:00Z,30.3085,-88.1395,2.446,10.17,1111122 
DISL,ioos:station:DISL:CATA:1,2019-03-08T18:30:00Z,30.3085,-88.1395,2.469,10.12,1111122 
DISL,ioos:station:DISL:CATA:1,2019-03-08T19:30:00Z,30.3085,-88.1395,2.462,10.14,1111122 
DISL,ioos:station:DISL:CATA:1,2019-03-08T20:30:00Z,30.3085,-88.1395,2.472,10.22,1111122 
DISL,ioos:station:DISL:CATA:1,2019-03-08T21:30:00Z,30.3085,-88.1395,2.438,10.24,1111122 
DISL,ioos:station:DISL:CATA:1,2019-03-08T22:30:00Z,30.3085,-88.1395,2.399,10.32,1111122 
DISL,ioos:station:DISL:CATA:1,2019-03-08T23:30:00Z,30.3085,-88.1395,2.381,10.34,1111122 
DISL,ioos:station:DISL:CATA:1,2019-03-09T00:30:00Z,30.3085,-88.1395,2.399,10.32,1111122 
DISL,ioos:station:DISL:CATA:1,2019-03-09T01:30:00Z,30.3085,-88.1395,2.401,10.43,1111122 
DISL,ioos:station:DISL:CATA:1,2019-03-09T02:30:00Z,30.3085,-88.1395,2.426,10.31,1111122 
DISL,ioos:station:DISL:CATA:1,2019-03-09T03:30:00Z,30.3085,-88.1395,2.503,10.18,1111122 
DISL,ioos:station:DISL:CATA:1,2019-03-09T04:30:00Z,30.3085,-88.1395,2.55,10.19,1111122 
DISL,ioos:station:DISL:CATA:1,2019-03-09T05:30:00Z,30.3085,-88.1395,2.558,10.08,1111122 
DISL,ioos:station:DISL:CATA:1,2019-03-09T06:30:00Z,30.3085,-88.1395,2.571,10.01,1111122 
DISL,ioos:station:DISL:CATA:1,2019-03-09T07:30:00Z,30.3085,-88.1395,2.568,9.88,1111122 
DISL,ioos:station:DISL:CATA:1,2019-03-09T08:30:00Z,30.3085,-88.1395,2.56,9.82,1111122 
DISL,ioos:station:DISL:CATA:1,2019-03-09T09:30:00Z,30.3085,-88.1395,2.531,10.03,1111122 
DISL,ioos:station:DISL:CATA:1,2019-03-09T10:30:00Z,30.3085,-88.1395,2.488,10.11,1111122 
DISL,ioos:station:DISL:CATA:1,2019-03-09T11:30:00Z,30.3085,-88.1395,2.426,10.12,1111122 
DISL,ioos:station:DISL:CATA:1,2019-03-09T12:30:00Z,30.3085,-88.1395,2.394,9.96,1111122 
DISL,ioos:station:DISL:CATA:1,2019-03-09T13:30:00Z,30.3085,-88.1395,2.412,9.76,1111122 
DISL,ioos:station:DISL:CATA:1,2019-03-09T14:30:00Z,30.3085,-88.1395,2.457,9.74,1111122 
DISL,ioos:station:DISL:CATA:1,2019-03-09T15:30:00Z,30.3085,-88.1395,2.527,9.79,1111122 
DISL,ioos:station:DISL:CATA:1,2019-03-09T16:30:00Z,30.3085,-88.1395,2.535,9.89,1111122 
DISL,ioos:station:DISL:CATA:1,2019-03-09T17:30:00Z,30.3085,-88.1395,2.584,9.87,1111122 
DISL,ioos:station:DISL:CATA:1,2019-03-09T18:30:00Z,30.3085,-88.1395,2.578,9.87,1111122 
DISL,ioos:station:DISL:CATA:1,2019-03-09T19:30:00Z,30.3085,-88.1395,2.585,9.87,1111122 
DISL,ioos:station:DISL:CATA:1,2019-03-09T20:30:00Z,30.3085,-88.1395,2.586,9.9,1111122 
DISL,ioos:station:DISL:CATA:1,2019-03-09T21:30:00Z,30.3085,-88.1395,2.554,9.9,1111122 
DISL,ioos:station:DISL:CATA:1,2019-03-09T22:30:00Z,30.3085,-88.1395,2.591,9.91,1111122 
DISL,ioos:station:DISL:CATA:1,2019-03-09T23:30:00Z,30.3085,-88.1395,2.544,9.9,1111122 
DISL,ioos:station:DISL:CATA:1,2019-03-10T00:30:00Z,30.3085,-88.1395,2.536,9.87,1111122 
DISL,ioos:station:DISL:CATA:1,2019-03-10T01:30:00Z,30.3085,-88.1395,2.508,9.82,1111122 
DISL,ioos:station:DISL:CATA:1,2019-03-10T02:30:00Z,30.3085,-88.1395,2.488,9.7,1111122 
DISL,ioos:station:DISL:CATA:1,2019-03-10T03:30:00Z,30.3085,-88.1395,2.508,9.55,1111122 
DISL,ioos:station:DISL:CATA:1,2019-03-10T04:30:00Z,30.3085,-88.1395,2.531,9.49,1111122 
DISL,ioos:station:DISL:CATA:1,2019-03-10T05:30:00Z,30.3085,-88.1395,2.57,9.47,1111122 
DISL,ioos:station:DISL:CATA:1,2019-03-10T06:30:00Z,30.3085,-88.1395,2.563,9.45,1111122 
DISL,ioos:station:DISL:CATA:1,2019-03-10T07:30:00Z,30.3085,-88.1395,2.54,9.41,1111122 
DISL,ioos:station:DISL:CATA:1,2019-03-10T08:30:00Z,30.3085,-88.1395,2.548,9.37,1111122 
DISL,ioos:station:DISL:CATA:1,2019-03-10T09:30:00Z,30.3085,-88.1395,2.568,9.32,1111122 
DISL,ioos:station:DISL:CATA:1,2019-03-10T10:30:00Z,30.3085,-88.1395,2.565,9.28,1111122 
DISL,ioos:station:DISL:CATA:1,2019-03-10T11:30:00Z,30.3085,-88.1395,2.546,9.22,1111122 
DISL,ioos:station:DISL:CATA:1,2019-03-10T12:30:00Z,30.3085,-88.1395,2.538,9.2,1111122 
DISL,ioos:station:DISL:CATA:1,2019-03-10T13:30:00Z,30.3085,-88.1395,2.525,9.23,1111122 
DISL,ioos:station:DISL:CATA:1,2019-03-10T14:30:00Z,30.3085,-88.1395,2.546,9.25,1111122 
DISL,ioos:station:DISL:CATA:1,2019-03-10T15:30:00Z,30.3085,-88.1395,2.599,9.29,1111122 
DISL,ioos:station:DISL:CATA:1,2019-03-10T16:30:00Z,30.3085,-88.1395,2.648,9.27,1111122 
DISL,ioos:station:DISL:CATA:1,2019-03-10T17:30:00Z,30.3085,-88.1395,2.647,9.05,1111122 
DISL,ioos:station:DISL:CATA:1,2019-03-10T18:30:00Z,30.3085,-88.1395,2.633,9.29,1111122 
DISL,ioos:station:DISL:CATA:1,2019-03-10T19:30:00Z,30.3085,-88.1395,2.608,9.32,1111122 
DISL,ioos:station:DISL:CATA:1,2019-03-10T20:30:00Z,30.3085,-88.1395,2.588,9.33,1111122 
DISL,ioos:station:DISL:CATA:1,2019-03-10T21:30:00Z,30.3085,-88.1395,2.552,9.32,1111122 
DISL,ioos:station:DISL:CATA:1,2019-03-11T04:30:00Z,30.3085,-88.1395,2.375,9.15,1111122 
DISL,ioos:station:DISL:CATA:1,2019-03-11T05:30:00Z,30.3085,-88.1395,2.411,9.08,1111122 
DISL,ioos:station:DISL:CATA:1,2019-03-11T06:30:00Z,30.3085,-88.1395,2.407,9.05,1111122 
DISL,ioos:station:DISL:CATA:1,2019-03-11T07:30:00Z,30.3085,-88.1395,2.396,9.0,1111122 
DISL,ioos:station:DISL:CATA:1,2019-03-11T08:30:00Z,30.3085,-88.1395,2.415,8.98,1111122 
DISL,ioos:station:DISL:CATA:1,2019-03-11T09:30:00Z,30.3085,-88.1395,2.446,8.99,1111122 
DISL,ioos:station:DISL:CATA:1,2019-03-11T10:30:00Z,30.3085,-88.1395,2.455,8.97,1111122 
DISL,ioos:station:DISL:CATA:1,2019-03-11T11:30:00Z,30.3085,-88.1395,2.46,8.95,1111122 
DISL,ioos:station:DISL:CATA:1,2019-03-11T12:30:00Z,30.3085,-88.1395,2.479,8.95,1111122 
DISL,ioos:station:DISL:CATA:1,2019-03-11T13:30:00Z,30.3085,-88.1395,2.496,8.94,1111122 
DISL,ioos:station:DISL:CATA:1,2019-03-11T14:30:00Z,30.3085,-88.1395,2.512,8.99,1111122 
DISL,ioos:station:DISL:CATA:1,2019-03-11T15:30:00Z,30.3085,-88.1395,2.554,9.08,1111122 
DISL,ioos:station:DISL:CATA:1,2019-03-11T16:30:00Z,30.3085,-88.1395,2.589,8.82,1111122 
DISL,ioos:station:DISL:CATA:1,2019-03-11T17:30:00Z,30.3085,-88.1395,2.591,9.07,1111122 
DISL,ioos:station:DISL:CATA:1,2019-03-11T18:30:00Z,30.3085,-88.1395,2.61,9.05,1111122 
DISL,ioos:station:DISL:CATA:1,2019-03-11T19:30:00Z,30.3085,-88.1395,2.596,8.83,1111122 
DISL,ioos:station:DISL:CATA:1,2019-03-11T20:30:00Z,30.3085,-88.1395,2.595,8.19,1111122 
DISL,ioos:station:DISL:CATA:1,2019-03-11T21:30:00Z,30.3085,-88.1395,2.55,6.34,1111122 
DISL,ioos:station:DISL:CATA:1,2019-03-11T22:30:00Z,30.3085,-88.1395,2.504,8.83,1111122 
DISL,ioos:station:DISL:CATA:1,2019-03-11T23:30:00Z,30.3085,-88.1395,2.469,9.25,1111122 
DISL,ioos:station:DISL:CATA:1,2019-03-12T00:30:00Z,30.3085,-88.1395,2.31,9.23,1111122 
DISL,ioos:station:DISL:CATA:1,2019-03-12T01:30:00Z,30.3085,-88.1395,2.288,9.32,1111122 
DISL,ioos:station:DISL:CATA:1,2019-03-12T02:30:00Z,30.3085,-88.1395,2.234,9.3,1111122 
DISL,ioos:station:DISL:CATA:1,2019-03-12T03:30:00Z,30.3085,-88.1395,2.205,9.44,1111122 
DISL,ioos:station:DISL:CATA:1,2019-03-12T04:30:00Z,30.3085,-88.1395,2.2,9.47,1111122 
DISL,ioos:station:DISL:CATA:1,2019-03-12T05:30:00Z,30.3085,-88.1395,2.23,9.22,1111122 
DISL,ioos:station:DISL:CATA:1,2019-03-12T06:30:00Z,30.3085,-88.1395,2.217,9.2,1111122 
DISL,ioos:station:DISL:CATA:1,2019-03-12T07:30:00Z,30.3085,-88.1395,2.207,9.13,1111122 
DISL,ioos:station:DISL:CATA:1,2019-03-12T08:30:00Z,30.3085,-88.1395,2.198,9.3,1111122 
DISL,ioos:station:DISL:CATA:1,2019-03-12T09:30:00Z,30.3085,-88.1395,2.237,9.22,1111122 
DISL,ioos:station:DISL:CATA:1,2019-03-12T10:30:00Z,30.3085,-88.1395,2.282,9.11,1111122 
DISL,ioos:station:DISL:CATA:1,2019-03-12T11:30:00Z,30.3085,-88.1395,2.281,9.17,1111122 
DISL,ioos:station:DISL:CATA:1,2019-03-12T12:30:00Z,30.3085,-88.1395,2.275,9.23,1111122 
DISL,ioos:station:DISL:CATA:1,2019-03-12T13:30:00Z,30.3085,-88.1395,2.318,9.19,1111122 
DISL,ioos:station:DISL:CATA:1,2019-03-12T14:30:00Z,30.3085,-88.1395,2.397,9.15,1111122 
DISL,ioos:station:DISL:CATA:1,2019-03-12T15:30:00Z,30.3085,-88.1395,2.456,9.14,1111122 
DISL,ioos:station:DISL:CATA:1,2019-03-12T16:30:00Z,30.3085,-88.1395,2.535,9.12,1111122 
DISL,ioos:station:DISL:CATA:1,2019-03-12T17:30:00Z,30.3085,-88.1395,2.588,9.14,1111122 
DISL,ioos:station:DISL:CATA:1,2019-03-12T18:30:00Z,30.3085,-88.1395,2.605,9.29,1111122 